Flag for Liechtenstein Weather past 2 weeks in Vaduz, Liechtenstein

Now
53 °F

Cool.


Feels Like: 51 °F
Forecast: 42 / 62 °F
Wind: 5 mph from Northwest

Location: Vaduz

Current Time: Oct 24, 2014 at 4:54:33 PM

Latest Report: Oct 24, 2014 at 4:00 PM


Visibility: N/A

Pressure: 30.14 "Hg

Humidity: 58%

Dew point: 38 °F

Location of VaduzLocation

Historic Weather in Vaduz — Graph

°F

Vaduz temperature yesterday

Maximum temperature yesterday: 46 °F (at 7:00 AM)
Minimum temperature yesterday: 42 °F (at 11:00 PM)
Average temperature yesterday: 44 °F

Past Weeks' High & Low Weather Summary

 TemperatureHumidityPressure
High80 °F (Oct 9, 3:00 PM)98% (Oct 24, 1:00 AM)30.34 "Hg (Oct 24, 1:00 AM)
Low36 °F (Oct 24, 4:00 AM)26% (Oct 9, 3:00 PM)29.73 "Hg (Oct 21, 8:00 PM)
Average58 °F74%30.01 "Hg
* Reported Oct 9 3:00 PM — Oct 24 3:00 PM, Vaduz, Weather by CustomWeather, © 2014

Note: Actual official high and low records may vary slightly from our data, if they occured in-between our weather recording intervals... More about our weather records

Advertising

Vaduz weather history for previous 24 hours

 ConditionsComfort  
Time TempWeatherWind HumidityBarometerVisibility
3:00 PM
Oct 24
53 °FCool.5 mph59%30.15 "HgN/A
2:00 PM51 °FPassing clouds.1 mph57%30.16 "Hg12 mi
1:00 PM49 °FCool.3 mph59%30.19 "HgN/A
12:00 PM47 °FCool.5 mph61%30.22 "HgN/A
11:00 AM46 °FPassing clouds.5 mph67%30.23 "Hg12 mi
10:00 AM42 °FQuite cool.3 mph75%30.25 "HgN/A
9:00 AM39 °FChilly.5 mph80%30.27 "HgN/A
8:00 AM40 °FFog.6 mph79%30.26 "Hg6 mi
7:00 AM39 °FChilly.3 mph82%30.27 "HgN/A
6:00 AM40 °FChilly.5 mph83%30.27 "HgN/A
5:00 AM40 °FFog.7 mph84%30.27 "Hg6 mi
4:00 AM36 °FChilly.2 mph95%30.31 "HgN/A
3:00 AM37 °FChilly.No wind97%30.32 "HgN/A
2:00 AM37 °FFog.1 mph96%30.32 "Hg6 mi
1:00 AM39 °FChilly.1 mph98%30.32 "HgN/A
12:00 AM41 °FQuite cool.1 mph94%30.31 "HgN/A
11:00 PM
Oct 23
42 °FFog.No wind94%30.32 "Hg6 mi
10:00 PM43 °FQuite cool.No wind92%30.32 "HgN/A
9:00 PM43 °FQuite cool.No wind90%30.31 "HgN/A
8:00 PM44 °FRain. Overcast.2 mph86%30.32 "Hg6 mi
7:00 PM44 °FQuite cool.3 mph80%30.31 "HgN/A
6:00 PM45 °FCool.No wind84%30.31 "HgN/A
5:00 PM46 °FFog.1 mph83%30.31 "Hg7 mi
4:00 PM45 °FCool.No wind84%30.31 "HgN/A
Weather by CustomWeather, © 2014

See weather overviewHow to use our weather pages